This is the latest recevied weather packets stored in our database for station/object K0WXC-1. If no packets are shown the sender has not sent any weather packets the latest 10 day(s).
| Time | Temp. | Humidity | Pressure | Rain* | Wind** | Luminosity | Snow |
|---|---|---|---|---|---|---|---|
| 1777273288 | 17.22° C | 82% | 992.7 hPa | 0 mm | 3.58 m/s, 187° | - | - |
| 1777273228 | 17.22° C | 82% | 992.3 hPa | 0 mm | 2.68 m/s, 165° | - | - |
| 1777273168 | 17.22° C | 82% | 992.3 hPa | 0 mm | 2.68 m/s, 165° | - | - |
| 1777273108 | 17.22° C | 82% | 992.3 hPa | 0 mm | 2.68 m/s, 165° | - | - |
| 1777273048 | 17.22° C | 82% | 992.3 hPa | 0 mm | 2.68 m/s, 165° | - | - |
| 1777272988 | 17.22° C | 82% | 992.3 hPa | 0 mm | 2.68 m/s, 165° | - | - |
| 1777272928 | 17.22° C | 82% | 992.5 hPa | 0 mm | 0.45 m/s, 183° | - | - |
| 1777272868 | 17.22° C | 82% | 992.5 hPa | 0 mm | 0.45 m/s, 183° | - | - |
| 1777272808 | 17.22° C | 82% | 992.5 hPa | 0 mm | 0.45 m/s, 183° | - | - |
| 1777272748 | 17.22° C | 82% | 992.5 hPa | 0 mm | 0.45 m/s, 183° | - | - |
| 1777272688 | 17.22° C | 82% | 992.5 hPa | 0 mm | 0.45 m/s, 183° | - | - |
| 1777272628 | 17.22° C | 82% | 991.7 hPa | 0 mm | 1.34 m/s, 151° | - | - |
| 1777272568 | 17.22° C | 82% | 991.7 hPa | 0 mm | 1.34 m/s, 151° | - | - |
| 1777272508 | 17.22° C | 82% | 991.7 hPa | 0 mm | 1.34 m/s, 151° | - | - |
| 1777272448 | 17.22° C | 82% | 991.7 hPa | 0 mm | 1.34 m/s, 151° | - | - |
| 1777272388 | 17.22° C | 82% | 991.7 hPa | 0 mm | 1.34 m/s, 151° | - | - |
| 1777272328 | 17.22° C | 83% | 992 hPa | 0 mm | 2.24 m/s, 161° | - | - |
| 1777272268 | 17.22° C | 83% | 992 hPa | 0 mm | 2.24 m/s, 161° | - | - |
| 1777272208 | 17.22° C | 83% | 992 hPa | 0 mm | 2.24 m/s, 161° | - | - |
| 1777272148 | 17.22° C | 83% | 992 hPa | 0 mm | 2.24 m/s, 161° | - | - |
| 1777272088 | 17.22° C | 83% | 992 hPa | 0 mm | 2.24 m/s, 161° | - | - |
| 1777272028 | 17.22° C | 83% | 992 hPa | 0 mm | 1.34 m/s, 120° | - | - |
| 1777271968 | 17.22° C | 83% | 992 hPa | 0 mm | 1.34 m/s, 120° | - | - |
| 1777271908 | 17.22° C | 83% | 992 hPa | 0 mm | 1.34 m/s, 120° | - | - |
| 1777271848 | 17.22° C | 83% | 992 hPa | 0 mm | 1.34 m/s, 120° | - | - |
* Rain latest hour (hover to see other rain measurements)
** Current wind speed in m/s (hover to see current wind gust speed)